Location: ??????
(42.0089°N, 44.3281°E)
Time: 10:46:35
(UTC+00:00)

Cosmos 2251 Rocket - Pass Details

Date: 03 June 2022
Orbit: 764 x 791 km, 74.0° (Epoch: 01 July)

Event Time Altitude Azimuth Distance (km) Brightness Sun altitude
Rises 20:54:21 0° 352° (N) 3,254 8.1 -25.6°
Reaches altitude 10° 20:57:19 10° 8° (N) 2,327 7.0 -25.6°
Maximum altitude 21:01:17 21° 57° (ENE) 1,691 5.6 -25.6°
Enters shadow 21:04:26 13° 99° (E) 2,120 5.7 -25.6°
